Time,TemperatureF,DewpointF,PressureIn,WindDirection,WindDirectionDegrees,WindSpeedMPH,WindSpeedGustMPH,Humidity,HourlyPrecipIn,Conditions,Clouds,dailyrainin,SoftwareType,DateUTC
2013-03-09 07:16:00,44.0,32.2,30.18,ESE,115,2.0,2.0,63,0.00,,---,0.00,VWS V13.01,2013-03-09 13:16:00,
2013-03-09 07:21:00,44.1,32.7,30.19,ESE,114,1.0,5.0,64,0.00,,---,0.00,VWS V13.01,2013-03-09 13:21:00,
2013-03-09 07:26:00,44.1,32.3,30.19,ESE,114,1.0,5.0,63,0.00,,---,0.00,VWS V13.01,2013-03-09 13:26:00,
2013-03-09 07:31:00,44.2,32.8,30.19,ESE,115,3.0,5.0,64,0.00,,---,0.00,VWS V13.01,2013-03-09 13:31:00,
2013-03-09 07:36:00,44.3,32.9,30.19,ESE,115,1.0,3.0,64,0.00,,---,0.00,VWS V13.01,2013-03-09 13:36:00,
2013-03-09 07:41:00,44.3,32.9,30.19,ESE,115,2.0,3.0,64,0.00,,---,0.00,VWS V13.01,2013-03-09 13:41:00,
2013-03-09 07:46:00,44.4,33.4,30.19,ESE,114,2.0,3.0,65,0.00,,---,0.00,VWS V13.01,2013-03-09 13:46:00,
2013-03-09 07:51:00,44.5,33.1,30.19,ESE,115,3.0,4.0,64,0.00,,---,0.00,VWS V13.01,2013-03-09 13:51:00,
2013-03-09 07:56:00,44.7,32.5,30.19,ESE,115,3.0,4.0,62,0.00,,---,0.00,VWS V13.01,2013-03-09 13:56:00,
2013-03-09 08:01:00,44.7,32.5,30.19,ESE,114,1.0,4.0,62,0.00,,---,0.00,VWS V13.01,2013-03-09 14:01:00,
2013-03-09 08:06:00,44.9,32.7,30.19,ESE,114,0.0,4.0,62,0.00,,---,0.00,VWS V13.01,2013-03-09 14:06:00,
2013-03-09 08:11:00,45.0,32.8,30.19,ESE,115,1.0,5.0,62,0.00,,---,0.00,VWS V13.01,2013-03-09 14:11:00,
2013-03-09 08:16:00,45.0,33.2,30.19,ESE,115,2.0,6.0,63,0.00,,---,0.00,VWS V13.01,2013-03-09 14:16:00,
2013-03-09 08:21:00,45.2,33.0,30.19,ESE,115,1.0,6.0,62,0.00,,---,0.00,VWS V13.01,2013-03-09 14:21:00,
2013-03-09 08:26:00,45.4,33.6,30.18,ESE,115,2.0,6.0,63,0.00,,---,0.00,VWS V13.01,2013-03-09 14:26:00,
2013-03-09 08:31:00,45.7,33.4,30.18,ESE,115,3.0,6.0,62,0.00,,---,0.00,VWS V13.01,2013-03-09 14:31:00,
2013-03-09 08:36:00,46.0,33.3,30.18,ESE,114,3.0,7.0,61,0.00,,---,0.00,VWS V13.01,2013-03-09 14:36:00,
2013-03-09 08:41:00,46.5,33.8,30.19,ESE,115,5.0,7.0,61,0.00,,---,0.00,VWS V13.01,2013-03-09 14:41:00,
2013-03-09 08:46:00,47.0,33.4,30.19,SE,128,3.0,11.0,59,0.00,,---,0.00,VWS V13.01,2013-03-09 14:46:00,
2013-03-09 08:51:00,47.5,33.9,30.19,SE,128,0.0,11.0,59,0.00,,---,0.00,VWS V13.01,2013-03-09 14:51:00,
2013-03-09 08:56:00,48.2,34.1,30.18,SE,128,4.0,11.0,58,0.00,,---,0.00,VWS V13.01,2013-03-09 14:56:00,
2013-03-09 09:01:00,48.7,34.2,30.18,SE,140,10.0,11.0,57,0.00,,---,0.00,VWS V13.01,2013-03-09 15:01:00,